Location: Hackberry
(29.5783°N, 96.8797°W)
Time: 20:57:29
(UTC+00:00)

Explorer 7 - All Passes

Search period start: 08 November 2024 00:00
Search period end: 18 November 2024 00:00
Orbit: 457 x 602 km, 50.3° (Epoch: 07 November)

Date Brightness Start Highest point End Pass type
(mag) Time Alt. Az. Time Alt. Az. Time Alt. Az.
08 Nov - 10:25:27 10° SW 10:29:21 87° SE 10:33:28 10° NE visible
08 Nov - 12:07:03 10° WNW 12:09:15 14° NNW 12:11:29 10° N visible
08 Nov - 17:09:46 10° NNW 17:12:55 19° NNE 17:16:05 10° ENE daylight
08 Nov - 18:48:14 10° NW 18:52:40 67° SW 18:57:04 10° SE daylight
09 Nov - 10:13:21 10° SW 10:17:12 72° NW 10:21:18 10° NE visible
09 Nov - 11:55:40 10° NW 11:57:15 12° NNW 11:58:50 10° N visible
09 Nov - 16:57:23 10° NNW 17:00:52 22° NE 17:04:21 10° E daylight
09 Nov - 18:36:08 10° NW 18:40:29 52° SW 18:44:48 10° SSE daylight
10 Nov - 08:24:34 10° SSE 08:26:10 12° SE 08:27:47 10° E night (unlit)
10 Nov - 10:01:15 10° WSW 10:05:03 55° NW 10:09:04 10° NE visible
10 Nov - 11:44:57 10° NNW 11:45:13 10° NNW 11:45:28 10° NNW visible
10 Nov - 16:45:01 10° NNW 16:48:44 26° NE 16:52:29 10° E daylight
10 Nov - 18:24:03 10° WNW 18:28:14 41° SW 18:32:24 10° SSE daylight
11 Nov - 08:11:29 10° SSE 08:13:51 16° SE 08:16:16 10° E night (unlit)
11 Nov - 09:49:10 10° WSW 09:52:52 43° NW 09:56:44 10° NNE visible
11 Nov - 16:32:37 10° NNW 16:36:33 31° NE 16:40:30 10° E daylight
11 Nov - 18:11:58 10° WNW 18:15:56 32° SW 18:19:54 10° SSE daylight
12 Nov - 07:58:40 10° S 08:01:30 20° SE 08:04:26 10° ENE night (unlit)
12 Nov - 09:37:06 10° WSW 09:40:38 34° NW 09:44:21 10° NNE night (unlit)
12 Nov - 16:20:12 10° NNW 16:24:19 37° NE 16:28:27 10° ESE daylight
12 Nov - 17:59:54 10° WNW 18:03:35 26° SW 18:07:15 10° S daylight
13 Nov - 07:45:59 10° S 07:49:07 26° SE 07:52:25 10° ENE night (unlit)
13 Nov - 09:25:02 10° W 09:28:23 28° NW 09:31:52 10° NNE night (unlit)
13 Nov - 16:07:47 10° NNW 16:12:00 45° NE 16:16:17 10° ESE daylight
13 Nov - 17:47:53 10° W 17:51:11 20° SW 17:54:28 10° S daylight
14 Nov - 07:33:20 10° SSW 07:36:43 34° SE 07:40:15 10° ENE night (unlit)
14 Nov - 09:13:00 10° W 09:16:06 23° NW 09:19:19 10° NNE night (unlit)
14 Nov - 14:18:22 10° N 14:19:32 11° NNE 14:20:42 10° NE daylight
14 Nov - 15:55:20 10° NW 15:59:39 56° NE 16:04:01 10° ESE daylight
14 Nov - 17:35:58 10° W 17:38:43 16° SW 17:41:27 10° SSW daylight
15 Nov - 07:20:45 10° SSW 07:24:17 44° SE 07:27:58 10° ENE night (unlit)
15 Nov - 09:00:59 10° W 09:03:47 19° NNW 09:06:41 10° NNE night (unlit)
15 Nov - 14:05:21 10° N 14:07:15 13° NNE 14:09:09 10° NE daylight
15 Nov - 15:42:51 10° NW 15:47:14 70° NE 15:51:39 10° SE daylight
15 Nov - 17:24:16 10° W 17:26:12 13° SW 17:28:08 10° SSW daylight
16 Nov - 07:08:11 10° SSW 07:11:49 59° SE 07:15:36 10° NE night (unlit)
16 Nov - 08:49:00 10° WNW 08:51:26 16° NNW 08:53:55 10° N night (unlit)
16 Nov - 13:52:30 10° N 13:54:54 14° NNE 13:57:20 10° ENE daylight
16 Nov - 15:30:23 10° NW 15:34:45 87° NE 15:39:12 10° SE daylight
17 Nov - 06:55:38 10° SW 06:59:18 78° SE 07:03:08 10° NE night (unlit)
17 Nov - 08:37:06 10° WNW 08:39:04 13° NNW 08:41:03 10° N night (unlit)
17 Nov - 13:39:42 10° N 13:42:30 17° NNE 13:45:20 10° ENE daylight
17 Nov - 15:17:53 10° NW 15:22:13 75° SW 15:26:39 10° SE daylight
